This is the latest recevied weather packets stored in our database for station/object KB7STN. If no packets are shown the sender has not sent any weather packets the latest 10 day(s).
| Time | Temp. | Humidity | Pressure | Rain* | Wind** | Luminosity | Snow |
|---|---|---|---|---|---|---|---|
| 1787873501 | 31.67° C | 26% | 1017.7 hPa | 0 mm | - | - | - |
| 1787873202 | 31.67° C | 26% | 1017.8 hPa | 0 mm | - | - | - |
| 1787872902 | 31.67° C | 26% | 1017.8 hPa | 0 mm | - | - | - |
| 1787872601 | 31.67° C | 24% | 1017.8 hPa | 0 mm | - | - | - |
| 1787872302 | 31.67° C | 24% | 1017.7 hPa | 0 mm | - | - | - |
| 1787872001 | 32.22° C | 25% | 1017.6 hPa | 0 mm | - | - | - |
| 1787871702 | 32.78° C | 24% | 1017.5 hPa | 0 mm | - | - | - |
| 1787871402 | 33.33° C | 23% | 1017.5 hPa | 0 mm | - | - | - |
| 1787871102 | 33.33° C | 21% | 1017.4 hPa | 0 mm | - | - | - |
| 1787870802 | 33.33° C | 21% | 1017.4 hPa | 0 mm | - | - | - |
| 1787870502 | 33.33° C | 22% | 1017.5 hPa | 0 mm | - | - | - |
| 1787870202 | 32.78° C | 21% | 1017.5 hPa | 0 mm | - | - | - |
| 1787869902 | 32.78° C | 21% | 1017.6 hPa | 0 mm | - | - | - |
| 1787869602 | 32.78° C | 21% | 1017.7 hPa | 0 mm | - | - | - |
| 1787869302 | 32.78° C | 22% | 1017.7 hPa | 0 mm | - | - | - |
| 1787869009 | 32.78° C | 21% | 1017.6 hPa | 0 mm | - | - | - |
| 1787868702 | 32.78° C | 23% | 1017.6 hPa | 0 mm | - | - | - |
| 1787868402 | 32.78° C | 23% | 1017.7 hPa | 0 mm | - | - | - |
| 1787868102 | 32.78° C | 22% | 1017.7 hPa | 0 mm | - | - | - |
| 1787867802 | 32.78° C | 25% | 1018.1 hPa | 0 mm | - | - | - |
| 1787867502 | 32.78° C | 22% | 1018.1 hPa | 0 mm | - | - | - |
| 1787867202 | 32.78° C | 22% | 1018 hPa | 0 mm | - | - | - |
| 1787866902 | 32.78° C | 23% | 1018.1 hPa | 0 mm | - | - | - |
| 1787866602 | 32.78° C | 22% | 1018.1 hPa | 0 mm | - | - | - |
| 1787866302 | 32.78° C | 22% | 1018.2 hPa | 0 mm | - | - | - |
* Rain latest hour (hover to see other rain measurements)
** Current wind speed in m/s (hover to see current wind gust speed)